Location: Newark
(50.5930°N, 3.6720°W)
Time: 04:06:08
(UTC+00:00)

X-37B - Pass Details

Date: 21 September 2020
Orbit: 382 x 392 km, 45.0° (Epoch: 15 October)

Event Time Altitude Azimuth Distance (km) Brightness Sun altitude
Exits shadow 03:42:03 17° 134° (SE) 1,047 2.9 -21.7°
Drops below altitude 10° 03:43:06 10° 122° (ESE) 1,402 3.7 -21.5°
Sets 03:45:19 0° 110° (ESE) 2,256 5.0 -21.2°
